This demonstration page uses our WeatherBlox Daily Observations layout. Learn more.

Left ArrowRight Arrow

Hourly Observations for December 1, 2022

Temp ( °F °C ) Dew Point ( °F °C ) Humidity (%) Winds ( mph kmh ) Pressure ( in mb ) Visibility ( mi km ) Precip ( " mm )
12:53 am 00:53 Mostly Clear 40 4.4 12 -11.1 31 31 SSW 18 30 29.85 1011 10 16 0.00 0.00
1:53 am 01:53 Partly Cloudy 38 3.3 13 -10.6 35 35 S 12 19 29.87 1012 10 16 0.00 0.00
2:53 am 02:53 Partly Cloudy 37 2.8 12 -11.1 35 35 S 8 13 29.88 1012 10 16 0.00 0.00
3:53 am 03:53 Clear 33 0.6 12 -11.1 41 41 S 6 9 29.91 1013 10 16 0.00 0.00
4:53 am 04:53 Mostly Clear 38 3.3 13 -10.6 35 35 SSE 8 13 29.88 1012 10 16 0.00 0.00
5:53 am 05:53 Mostly Clear 37 2.8 14 -10 38 38 S 7 11 29.88 1012 10 16 0.00 0.00
6:53 am 06:53 Mostly Clear 39 3.9 14 -10 35 35 S 5 7 29.88 1012 10 16 0.00 0.00
7:53 am 07:53 Mostly Sunny 38 3.3 16 -8.9 40 40 S 10 17 29.90 1013 10 16 0.00 0.00
8:53 am 08:53 Partly Cloudy 45 7.2 17 -8.3 32 32 S 20 31 29.87 1012 10 16 0.00 0.00
9:53 am 09:53 Partly Cloudy 49 9.4 18 -7.8 29 29 S 17 28 29.78 1009 10 16 0.00 0.00
10:53 am 10:53 Partly Cloudy 53 11.7 18 -7.8 25 25 S 18 30 29.76 1008 10 16 0.00 0.00
11:53 am 11:53 Partly Cloudy 56 13.3 17 -8.3 21 21 SSW 22 35 29.70 1006 10 16 0.00 0.00
12:53 pm 12:53 Partly Cloudy 59 15 15 -9.4 18 18 SSW 18 30 29.63 1003 10 16 0.00 0.00
1:53 pm 13:53 Partly Cloudy 60 15.6 14 -10 16 16 S 20 31 29.62 1003 10 16 0.00 0.00
2:53 pm 14:53 Partly Cloudy 57 13.9 15 -9.4 19 19 SSW 13 20 29.63 1003 10 16 0.00 0.00
3:53 pm 15:53 Mostly Cloudy 59 15 9 -12.8 13 13 WSW 22 35 29.64 1004 10 16 0.00 0.00
4:53 pm 16:53 Mostly Cloudy 55 12.8 9 -12.8 15 15 WSW 22 35 29.64 1004 10 16 0.00 0.00
6:53 pm 18:53 Mostly Cloudy 54 12.2 11 -11.7 18 18 SW 17 28 29.62 1003 10 16 0.00 0.00
7:53 pm 19:53 Mostly Cloudy 54 12.2 12 -11.1 18 18 WSW 25 41 29.61 1003 10 16 0.00 0.00
8:53 pm 20:53 Partly Cloudy 53 11.7 13 -10.6 20 20 WSW 32 52 29.57 1001 10 16 0.00 0.00
9:53 pm 21:53 Partly Cloudy 51 10.6 15 -9.4 23 23 WSW 28 44 29.56 1001 10 16 0.00 0.00
10:53 pm 22:53 Mostly Cloudy 50 10 16 -8.9 25 25 WSW 25 41 29.55 1001 10 16 0.00 0.00
11:53 pm 23:53 Mostly Cloudy 50 10 16 -8.9 25 25 W 21 33 29.55 1001 10 16 0.00 0.00

Powered by AerisWeather